Saratoga Shively Field Airpor, WY

3:06 AM MDT on April 20, 2018 (GMT -0600)
Shively

Weather History for KSAA - December, 2013

Change the Weather History Date:

Saturday, December 28, 2013

  Actual Average Record
Temperature  
Mean Temperature 28 °F -  
Max Temperature 39 °F 31 °F 41 °F (2017)
Min Temperature 17 °F 9 °F -18 °F (2015)
Degree Days  
Heating Degree Days 37    
Moisture  
Dew Point 19 °F    
Average Humidity 74    
Maximum Humidity 100    
Minimum Humidity 42    
Precipitation  
Precipitation 0.00 in - - ()
Sea Level Pressure  
Sea Level Pressure 30.05 in    
Wind  
Wind Speed 10 mph (WSW)    
Max Wind Speed 16 mph    
Max Gust Speed 22 mph    
Visibility 9 miles    
Events Snow    
Averages and records for this station are not official NWS values.
T = Trace of Precipitation, MM = Missing Value Source: NWS Daily Summary

Daily Weather History Graph

Daily Weather History Graph

Search for Another Location

Airport or City:

Astronomy

Dec. 28, 2013 Rise Set
Actual Time 7:32 AM MST 4:45 PM MST
Civil Twilight 7:01 AM MST 5:16 PM MST
Nautical Twilight 6:26 AM MST 5:51 PM MST
Astronomical Twilight 5:53 AM MST 6:25 PM MST
Moon 3:11 AM MST (12/28) 1:39 PM MST (12/28)
Length of Visible Light 10h 15m
Length of Day
9h 12m
Waning Crescent, 18% of the Moon is Illuminated
Dec 28
Waning Crescent
Jan 1
New
Jan 7
First Quarter
Jan 15
Full
Jan 23
Last Quarter

Hourly Weather History & Observations

Time (MST) Temp. Windchill Dew Point Humidity Pressure Visibility Wind Dir Wind Speed Gust Speed Precip Events Conditions
12:15 AM 23.0 °F 12.4 °F 17.6 °F 80% 30.14 in 10.0 mi South 10.4 mph - N/A   Clear
12:35 AM 24.8 °F 14.6 °F 17.6 °F 74% 30.13 in 10.0 mi SSE 10.4 mph - N/A   Clear
12:55 AM 26.6 °F 15.2 °F 17.6 °F 69% 30.12 in 10.0 mi SSE 13.8 mph 19.6 mph N/A   Clear
1:15 AM 26.6 °F 18.2 °F 17.6 °F 69% 30.12 in 10.0 mi SE 8.1 mph - N/A   Clear
1:35 AM 23.0 °F 12.4 °F 17.6 °F 80% 30.11 in 10.0 mi SSE 10.4 mph - N/A   Clear
1:56 AM 23.0 °F 13.9 °F 17.6 °F 80% 30.11 in 10.0 mi SSE 8.1 mph - N/A   Clear
2:15 AM 23.0 °F 12.4 °F 17.6 °F 80% 30.10 in 10.0 mi SSE 10.4 mph - N/A   Clear
2:35 AM 24.8 °F 16.9 °F 17.6 °F 74% 30.09 in 10.0 mi SSE 6.9 mph - N/A   Clear
2:55 AM 23.0 °F 12.4 °F 17.6 °F 80% 30.08 in 10.0 mi SSE 10.4 mph - N/A   Clear
3:15 AM 26.6 °F 14.3 °F 17.6 °F 69% 30.07 in 10.0 mi SSE 16.1 mph - N/A   Clear
3:35 AM 26.6 °F 18.2 °F 17.6 °F 69% 30.07 in 10.0 mi South 8.1 mph - N/A   Clear
3:55 AM 26.6 °F 15.7 °F 17.6 °F 69% 30.05 in 10.0 mi SSE 12.7 mph - N/A   Clear
4:15 AM 26.6 °F 16.8 °F 17.6 °F 69% 30.05 in 10.0 mi SSE 10.4 mph - N/A   Clear
4:35 AM 26.6 °F 14.3 °F 17.6 °F 69% 30.05 in 10.0 mi SSE 16.1 mph - N/A   Clear
4:55 AM 26.6 °F 17.5 °F 17.6 °F 69% 30.04 in 10.0 mi SSE 9.2 mph - N/A   Clear
5:15 AM 24.8 °F 14.6 °F 17.6 °F 74% 30.03 in 10.0 mi SSE 10.4 mph - N/A   Clear
5:35 AM 26.6 °F 17.5 °F 17.6 °F 69% 30.02 in 10.0 mi SE 9.2 mph - N/A   Clear
5:55 AM 26.6 °F 16.8 °F 17.6 °F 69% 30.02 in 10.0 mi SSE 10.4 mph 13.8 mph N/A   Clear
6:15 AM 24.8 °F 20.5 °F 17.6 °F 74% 30.03 in 10.0 mi NE 3.5 mph - N/A   Clear
6:35 AM 26.6 °F 20.0 °F 17.6 °F 69% 30.03 in 10.0 mi SE 5.8 mph - N/A   Clear
6:55 AM 24.8 °F 16.1 °F 15.8 °F 69% 30.03 in 10.0 mi SE 8.1 mph - N/A   Clear
7:15 AM 26.6 °F 21.2 °F 17.6 °F 69% 30.03 in 10.0 mi SE 4.6 mph - N/A   Clear
7:35 AM 26.6 °F 21.2 °F 15.8 °F 64% 30.03 in 10.0 mi NNE 4.6 mph - N/A   Clear
7:55 AM 23.0 °F 18.4 °F 15.8 °F 74% 30.02 in 10.0 mi SSE 3.5 mph - N/A   Clear
8:15 AM 24.8 °F - 15.8 °F 69% 30.02 in 10.0 mi Calm Calm - N/A   Clear
8:35 AM 23.0 °F 13.9 °F 17.6 °F 80% 30.02 in 10.0 mi SSE 8.1 mph - N/A   Clear
8:55 AM 24.8 °F 17.9 °F 17.6 °F 74% 30.03 in 10.0 mi SSE 5.8 mph - N/A   Clear
9:15 AM 26.6 °F 16.2 °F 17.6 °F 69% 30.02 in 10.0 mi SE 11.5 mph - N/A   Clear
9:35 AM 28.4 °F 17.5 °F 17.6 °F 64% 30.02 in 10.0 mi SSE 13.8 mph 19.6 mph N/A   Clear
9:55 AM 28.4 °F 18.0 °F 19.4 °F 69% 30.01 in 10.0 mi SSE 12.7 mph - N/A   Clear
10:15 AM 30.2 °F 22.6 °F 19.4 °F 64% 30.01 in 10.0 mi SSE 8.1 mph 11.5 mph N/A   Clear
10:35 AM 32.0 °F 26.4 °F 19.4 °F 60% 30.01 in 10.0 mi SSE 5.8 mph - N/A   Clear
10:55 AM 39.2 °F 31.6 °F 17.6 °F 42% 30.00 in 10.0 mi WSW 12.7 mph 18.4 mph N/A   Clear
11:15 AM 39.2 °F 33.6 °F 17.6 °F 42% 30.00 in 10.0 mi West 8.1 mph - N/A   Clear
11:35 AM 39.2 °F 33.0 °F 19.4 °F 45% 30.02 in 10.0 mi West 9.2 mph - N/A   Clear
11:55 AM 35.6 °F 26.2 °F 19.4 °F 52% 30.00 in 10.0 mi West 15.0 mph 21.9 mph N/A   Clear
12:15 PM 35.6 °F 25.9 °F 21.2 °F 56% 30.00 in 10.0 mi West 16.1 mph - N/A   Clear
12:35 PM 33.8 °F 24.3 °F 19.4 °F 56% 30.00 in 10.0 mi West 13.8 mph 20.7 mph N/A   Clear
12:55 PM 35.6 °F 28.6 °F 19.4 °F 52% 29.99 in 10.0 mi West 9.2 mph - N/A   Clear
1:15 PM 35.6 °F 27.5 °F 21.2 °F 56% 29.98 in 10.0 mi West 11.5 mph - N/A   Clear
1:35 PM 35.6 °F 27.1 °F 19.4 °F 52% 29.97 in 10.0 mi West 12.7 mph - N/A   Clear
1:55 PM 35.6 °F 29.2 °F 21.2 °F 56% 29.98 in 10.0 mi West 8.1 mph - N/A   Clear
2:15 PM 35.6 °F 29.9 °F 21.2 °F 56% 29.97 in 10.0 mi NW 6.9 mph - N/A   Mostly Cloudy
2:35 PM 33.8 °F 24.8 °F 21.2 °F 60% 29.97 in 10.0 mi West 12.7 mph - N/A   Overcast
2:55 PM 33.8 °F 25.3 °F 21.2 °F 60% 29.98 in 10.0 mi NW 11.5 mph - N/A   Overcast
3:15 PM 32.0 °F 23.6 °F 21.2 °F 64% 29.98 in 10.0 mi NNW 10.4 mph - N/A   Overcast
3:35 PM 32.0 °F 23.0 °F 23.0 °F 69% 29.99 in 10.0 mi North 11.5 mph - N/A   Overcast
3:55 PM 30.2 °F 22.6 °F 21.2 °F 69% 29.99 in 10.0 mi NNW 8.1 mph - N/A   Mostly Cloudy
4:15 PM 28.4 °F 19.1 °F 23.0 °F 80% 30.00 in 10.0 mi North 10.4 mph - N/A   Overcast
4:35 PM 28.4 °F 21.2 °F 23.0 °F 80% 30.01 in 10.0 mi North 6.9 mph - N/A   Overcast
4:55 PM 28.4 °F 20.4 °F 24.8 °F 86% 30.02 in 10.0 mi NNW 8.1 mph - N/A   Overcast
5:15 PM 26.6 °F 17.5 °F 23.0 °F 86% 30.03 in 10.0 mi NW 9.2 mph - N/A   Overcast
5:35 PM 26.6 °F 16.2 °F 23.0 °F 86% 30.03 in 10.0 mi NW 11.5 mph - N/A   Overcast
5:55 PM 24.8 °F 14.6 °F 23.0 °F 93% 30.04 in 10.0 mi NW 10.4 mph - N/A   Overcast
6:15 PM 24.8 °F 14.0 °F 23.0 °F 93% 30.05 in 10.0 mi NW 11.5 mph - N/A   Overcast
6:35 PM 24.8 °F 14.6 °F 21.2 °F 86% 30.05 in 10.0 mi NW 10.4 mph - N/A   Overcast
6:55 PM 24.8 °F 14.6 °F 21.2 °F 86% 30.05 in 10.0 mi NW 10.4 mph - N/A Snow Light Snow
7:15 PM 24.8 °F 15.3 °F 21.2 °F 86% 30.06 in 10.0 mi NW 9.2 mph - N/A   Overcast
7:35 PM 24.8 °F 12.9 °F 21.2 °F 86% 30.07 in 10.0 mi NW 13.8 mph - N/A Snow Light Snow
7:56 PM 23.0 °F 10.6 °F 21.2 °F 93% 30.08 in 2.0 mi NNW 13.8 mph - N/A Snow Light Snow
8:15 PM 21.2 °F 8.9 °F 19.4 °F 93% 30.09 in 2.5 mi NW 12.7 mph - N/A Snow Light Snow
8:35 PM 21.2 °F 10.1 °F 19.4 °F 93% 30.10 in 2.0 mi NW 10.4 mph - N/A Snow Light Snow
8:55 PM 19.4 °F 7.2 °F 17.6 °F 93% 30.11 in 1.5 mi NNW 11.5 mph - N/A Snow Light Snow
9:15 PM 19.4 °F 7.9 °F 19.4 °F 100% 30.11 in 4.0 mi NNW 10.4 mph - N/A Snow Light Snow
9:35 PM 21.2 °F 11.7 °F 19.4 °F 93% 30.12 in 4.0 mi NNW 8.1 mph - N/A Snow Light Snow
9:55 PM 19.4 °F 9.5 °F 17.6 °F 93% 30.13 in 5.0 mi NNW 8.1 mph - N/A Snow Light Snow
10:15 PM 19.4 °F 10.4 °F 17.6 °F 93% 30.13 in 5.0 mi NNW 6.9 mph - N/A Snow Light Snow
10:35 PM 19.4 °F 9.5 °F 17.6 °F 93% 30.13 in 7.0 mi WNW 8.1 mph - N/A Snow Light Snow
10:55 PM 19.4 °F 9.5 °F 17.6 °F 93% 30.14 in 10.0 mi West 8.1 mph - N/A   Overcast
11:15 PM 17.6 °F 6.4 °F 15.8 °F 93% 30.14 in 10.0 mi West 9.2 mph - N/A   Overcast
11:35 PM 17.6 °F 6.4 °F 15.8 °F 93% 30.15 in 10.0 mi WNW 9.2 mph - N/A   Overcast
11:55 PM 17.6 °F 5.7 °F 15.8 °F 93% 30.15 in 10.0 mi NW 10.4 mph - N/A   Overcast